Location: Izdebno
(52.6670°N, 16.2170°E)
Time: 04:21:34
(UTC+02:00)

Transit 2A - Pass Details

Date: 03 March 2024
Orbit: 596 x 956 km, 66.7° (Epoch: 21 April)

Event Time Altitude Azimuth Distance (km) Brightness Sun altitude
Rises 03:40:49 0° 311° (NW) 3,037 - -26.8°
Reaches altitude 10° 03:43:32 10° 295° (WNW) 2,176 - -26.4°
Maximum altitude 03:47:10 21° 248° (WSW) 1,642 - -25.9°
Drops below altitude 10° 03:51:01 10° 201° (SSW) 2,339 - -25.4°
Sets 03:54:05 0° 186° (S) 3,336 - -25.0°
